User: anonymous   Login
Location: Unspecified
(0.0000°N, 0.0000°E)
Time: 01:51:51
(UTC+00:00)
Language:

TBA - TO BE ASSIGNED - Orbit

View from above orbital plane
View from above orbital plane
View from above satellite
View from above satellite

Ground track
Ground track

The orbit is defined by the following mean orbital elements,

1 67889U          26145.33057588 +.00000000 +00000-0 +55827-3 0 00008
2 67889  97.2855  78.8565 0003104  69.2257 290.9318 15.33446192    04
Epoch (UTC): 25 May 2026 07:56:01
Eccentricity: 0.0003104
inclination: 97.2855°
perigee height: 463 km
apogee height: 468 km
right ascension of ascending node: 78.8565°
argument of perigee: 69.2257°
revolutions per day: 15.33446192
mean anomaly at epoch: 290.9318°

The dashed part of the orbit path shows where the satellite is in the earth's shadow,  

DLR